Wind_Speed
15 16 17 18 17 17 18 20 20 22 24 23 19 13 12 11 9 9 11 11 12 15 16 17 17 14 14 18 25 31 33 31 30 29 28 28 26 23 22 21 18 17 17 14 11 10 8 6 5 6 7 8 9 9 10 10 10 10 11 13 15 16 16 18 18 17 17 18 17 16 15 13 12 11 10 9 8 7 7 7 8 9 9 9 10
13 14 17 20 20 17 14 13 14 17 20 22 21 17 13 12 10 9 11 11 11 13 14 15 15 14 13 17 23 29 34 33 31 32 31 29 27 25 24 23 20 19 18 16 14 12 10 8 6 6 7 8 9 9 10 10 10 10 10 11 13 14 16 17 18 18 18 18 18 16 15 13 11 10 10 9 8 7 7 7 8 8 9 8 9
15 18 20 21 17 12 9 7 9 11 12 16 16 14 11 11 10 8 9 11 12 12 13 13 14 13 13 18 23 27 32 33 32 32 31 29 28 27 26 24 22 21 20 18 16 14 12 10 8 6 7 7 8 9 10 10 11 10 10 10 12 13 15 16 18 19 19 19 19 17 15 13 11 9 9 9 9 8 8 8 8 8 8 8 8
19 18 17 15 11 10 10 8 10 9 9 12 13 8 5 6 9 7 8 12 13 12 11 11 12 12 13 17 23 26 29 32 32 31 30 29 28 28 28 25 24 23 22 20 18 16 14 13 10 8 7 7 8 9 10 11 11 11 11 11 11 13 14 16 17 18 19 19 19 18 16 13 11 9 9 9 9 9 8 8 8 8 8 7 6
16 13 11 9 6 8 9 8 11 11 10 12 12 10 4 3 7 8 6 9 11 10 8 9 11 11 12 15 22 26 28 31 32 32 31 29 29 30 30 27 25 25 24 21 19 18 16 15 12 9 8 7 7 8 9 10 11 11 11 11 11 13 14 15 16 18 19 20 19 18 16 14 12 11 10 10 10 9 9 9 8 8 8 6 4
11 11 12 11 9 10 11 11 12 10 10 11 12 11 9 6 3 6 8 6 6 7 6 8 9 10 11 14 20 26 28 30 32 33 32 30 29 30 31 29 27 26 26 24 21 20 18 16 14 11 10 8 7 7 7 8 10 11 11 11 11 12 14 15 16 17 18 19 20 19 18 16 14 13 12 12 11 11 10 10 9 9 8 6 3
15 16 15 14 15 13 12 13 15 13 9 10 12 10 8 8 3 1 6 9 9 8 7 8 9 8 10 12 17 24 27 29 31 33 33 32 30 29 30 30 29 28 28 26 23 21 20 18 16 13 11 10 9 7 7 6 7 9 10 11 11 11 13 14 16 17 18 19 19 19 18 17 16 16 15 14 13 13 12 11 10 10 9 6 4
18 18 15 15 17 17 16 16 17 16 14 11 10 6 5 5 4 1 3 9 11 10 9 8 9 10 11 12 15 21 26 29 30 31 32 32 31 29 30 30 30 30 30 29 26 24 22 20 18 15 13 13 11 9 8 6 5 6 8 11 11 11 12 13 15 17 18 19 19 18 18 18 18 18 17 16 15 15 14 12 12 11 10 7 5
20 21 20 20 19 19 20 21 20 20 17 14 12 8 3 2 4 5 4 8 10 10 9 9 10 12 11 12 15 19 24 28 30 31 30 29 29 29 29 30 31 31 31 30 27 25 24 22 19 17 16 15 14 12 10 8 6 5 6 9 12 13 12 12 14 16 18 19 19 19 18 19 20 19 18 18 17 16 15 14 13 12 11 8 5
23 24 26 27 24 21 22 22 23 24 21 18 18 16 12 9 7 8 10 11 12 13 11 10 10 11 12 13 15 18 21 25 28 30 29 27 27 26 26 28 30 31 31 30 28 26 25 23 21 19 18 17 16 14 13 11 9 6 5 6 10 13 14 13 13 15 17 19 20 20 19 20 20 20 20 19 19 18 17 16 15 13 11 9 6
26 24 26 29 30 27 25 25 27 29 27 25 23 23 23 20 14 12 13 13 14 15 14 13 12 12 13 15 16 17 19 22 25 29 29 27 25 25 24 26 29 31 31 30 28 27 26 24 23 21 20 19 18 17 16 14 11 9 6 5 7 11 15 14 14 14 16 18 20 21 21 21 21 20 21 21 21 20 19 18 16 14 12 9 7
27 26 27 27 29 32 33 33 33 33 32 30 29 30 33 31 23 17 16 15 15 16 16 16 16 16 16 16 17 18 20 22 24 27 30 28 25 25 24 26 29 30 30 30 29 28 27 26 25 24 23 23 21 19 18 16 14 11 8 6 5 8 13 16 16 15 16 17 20 22 23 23 22 21 22 22 22 22 21 19 18 16 13 10 10
29 31 31 28 27 30 33 35 36 37 36 34 33 35 38 39 33 25 21 19 19 20 19 19 20 20 17 16 18 20 22 23 24 27 30 30 27 25 26 27 29 29 30 30 30 29 29 29 28 27 27 26 24 22 21 19 16 12 10 8 7 7 10 14 17 17 17 18 20 23 25 25 23 22 22 23 23 23 22 21 19 17 14 12 13
31 33 34 33 32 32 32 33 35 37 39 39 38 38 39 42 41 34 27 25 25 24 22 23 25 23 20 18 18 20 22 24 25 26 28 30 29 27 27 29 30 30 30 30 31 31 30 30 29 29 29 28 27 25 24 23 21 17 14 13 12 11 11 13 16 18 19 19 20 23 25 26 25 23 23 24 24 24 24 22 21 19 16 15 16
30 32 34 36 37 36 35 35 36 38 41 43 44 44 43 45 46 42 35 32 31 29 26 26 28 27 23 21 21 20 20 23 25 25 26 30 31 30 30 31 31 31 31 31 31 31 30 29 29 28 29 29 30 28 27 26 25 22 20 19 17 16 15 14 15 18 20 21 21 22 25 27 26 25 25 25 25 25 25 24 22 20 19 18 18
27 28 30 33 36 38 39 38 39 41 43 46 50 50 48 47 48 47 43 40 37 34 31 30 31 30 26 25 25 24 24 24 26 26 25 28 33 34 33 33 33 32 32 32 31 31 30 29 27 27 27 28 29 29 29 28 27 26 24 22 20 19 19 18 18 18 20 22 22 23 24 27 28 27 26 26 27 27 27 26 24 22 21 20 20
27 27 28 29 31 34 38 39 41 43 45 48 51 53 52 49 48 48 48 47 44 41 37 36 35 32 29 29 28 28 29 26 25 26 25 27 33 36 36 34 34 33 33 33 32 31 30 28 27 25 25 25 26 27 28 29 29 28 27 25 22 20 21 22 22 21 21 22 23 24 24 27 29 29 28 28 28 29 29 27 26 24 23 22 21
32 31 31 31 31 31 32 34 38 43 47 49 50 53 54 52 50 50 51 51 50 48 45 42 40 37 34 33 31 31 32 29 25 25 26 29 33 35 36 36 35 35 35 34 33 32 30 29 27 25 24 24 24 25 26 27 29 29 29 27 24 22 22 24 25 24 23 22 24 25 26 27 30 31 31 30 30 31 31 29 28 27 26 24 23
37 36 36 35 34 34 33 31 31 36 43 48 50 52 54 54 53 53 53 54 53 52 52 50 47 44 41 37 35 35 36 33 30 28 28 32 33 35 37 38 36 36 37 36 34 33 32 30 29 27 26 25 25 25 26 27 28 28 29 28 26 24 23 25 27 28 26 25 25 26 27 28 30 32 33 32 32 32 32 32 30 29 28 26 25
39 39 39 38 38 37 37 36 33 33 37 42 48 51 55 57 57 57 57 57 56 55 55 55 54 52 48 43 40 40 39 38 36 34 32 31 32 35 38 39 39 38 38 37 36 35 34 32 30 29 28 28 27 27 27 28 28 28 28 28 27 26 26 26 29 31 30 28 27 27 28 29 30 32 34 34 33 33 34 33 32 31 30 29 27
40 39 39 39 39 39 39 39 39 38 39 39 42 47 52 57 60 61 61 61 61 60 58 58 59 58 53 49 47 44 42 41 40 40 38 36 34 36 38 39 39 40 41 40 38 38 36 34 33 31 30 30 30 29 28 28 28 28 28 29 28 28 28 28 30 33 33 31 29 29 29 31 31 32 34 35 35 35 35 35 35 33 32 31 29
42 42 41 40 40 41 41 41 41 42 43 43 43 44 47 52 57 62 65 64 64 65 63 61 62 62 58 54 53 49 46 44 43 44 44 43 41 39 39 39 39 40 42 42 41 40 38 36 35 33 31 31 31 31 30 29 29 29 29 30 30 30 31 31 32 35 36 34 32 30 31 32 32 33 35 36 37 36 37 37 37 36 34 33 31
45 45 44 44 44 44 44 44 44 44 45 46 47 46 47 49 52 58 63 66 67 68 67 65 64 64 62 59 58 56 51 47 46 46 46 47 46 44 41 41 40 40 41 42 42 41 40 39 38 36 33 33 33 32 31 31 31 30 30 30 31 32 33 33 34 37 38 37 34 32 31 32 33 34 35 37 38 38 38 39 38 38 37 35 33
45 46 46 46 46 46 46 46 46 46 46 47 48 49 50 50 51 53 57 62 66 69 71 70 68 67 66 63 61 61 58 55 53 50 47 48 50 49 46 43 41 42 42 42 43 43 42 42 41 40 37 35 34 33 32 31 32 31 30 30 31 32 33 34 35 38 40 39 37 34 32 32 34 35 36 37 39 40 40 40 40 39 38 37 35
47 47 48 48 47 47 47 47 47 47 46 46 47 48 50 51 52 54 54 56 60 65 70 72 73 71 70 68 66 64 62 61 60 56 51 49 49 50 49 46 43 44 44 44 44 43 43 43 43 42 40 37 36 34 32 31 31 31 31 30 31 32 33 34 36 40 42 41 39 37 34 33 33 35 37 38 40 41 42 42 42 41 40 39 37
49 50 50 51 51 50 49 48 47 47 46 46 46 47 48 50 52 54 56 55 56 59 64 69 73 75 74 73 72 69 66 64 63 61 56 52 49 48 50 49 47 47 47 46 46 43 42 44 44 44 42 40 38 36 33 32 31 31 31 31 32 32 33 35 38 42 44 43 42 39 36 34 33 35 38 39 41 42 43 43 43 42 41 40 39
50 52 53 54 54 54 52 51 49 48 48 48 47 47 48 49 51 53 55 56 56 57 60 66 72 74 74 76 76 74 71 68 66 64 62 57 52 50 49 49 50 51 50 50 49 45 43 43 45 45 44 42 40 38 35 34 33 32 31 32 33 34 34 36 40 44 45 45 43 41 38 36 34 35 38 40 42 43 44 45 44 44 43 42 40
52 53 55 56 57 57 56 55 53 51 49 49 49 49 49 49 51 52 54 56 58 58 60 65 70 73 73 75 78 78 75 73 71 68 66 62 58 56 52 49 51 52 52 53 51 49 46 43 44 46 46 44 43 39 37 35 35 34 33 34 36 35 35 37 42 46 47 46 44 42 39 37 36 35 37 40 43 43 45 45 45 45 44 43 41
53 55 57 58 59 60 60 58 56 54 52 51 50 50 49 49 50 52 54 55 57 59 61 64 68 72 73 75 77 77 77 77 76 73 71 67 64 61 58 55 52 50 50 51 51 52 50 45 43 45 45 45 45 42 39 37 37 36 35 35 37 37 35 37 42 46 47 46 44 42 40 38 37 36 37 40 43 44 45 46 46 46 45 44 42
54 57 59 60 61 62 62 61 59 57 55 53 52 51 50 49 49 50 52 55 57 60 62 63 67 71 75 76 77 76 76 78 78 77 76 73 69 67 64 61 56 51 49 50 50 52 51 46 43 43 42 43 44 43 41 39 38 37 36 36 37 37 35 36 40 45 46 45 44 42 40 38 37 36 36 38 42 44 45 46 47 47 46 45 43
56 58 61 62 63 63 63 63 62 60 58 56 54 53 51 49 48 49 51 53 56 60 61 64 67 71 75 78 78 77 77 78 78 79 78 75 73 71 67 62 58 53 49 49 50 51 50 48 45 43 42 42 43 42 41 40 39 38 37 36 36 36 35 35 38 43 45 45 43 41 40 39 38 37 37 38 40 44 45 46 47 48 47 46 45
57 60 62 64 64 64 64 64 63 62 60 59 57 55 53 50 49 49 50 51 54 58 61 63 66 71 74 78 79 78 78 79 79 79 78 76 73 72 68 63 59 55 51 48 49 51 50 48 45 43 42 42 43 42 41 40 39 38 37 37 38 37 35 34 37 41 44 44 43 42 41 40 39 38 37 37 39 43 45 46 48 49 49 48 46
59 61 63 65 66 66 65 65 64 63 62 61 59 57 55 53 50 49 49 49 50 55 61 63 66 69 73 76 78 80 80 81 80 79 78 76 74 71 68 64 60 57 54 50 49 50 49 47 45 43 41 41 42 42 41 40 40 38 37 37 38 38 35 34 36 39 42 43 42 41 41 40 39 38 37 38 39 42 45 46 48 49 50 49 47
61 63 65 66 66 66 65 65 64 64 64 63 62 60 58 56 52 50 49 47 48 53 59 63 65 68 71 74 78 81 82 82 81 79 78 77 75 72 69 65 61 59 57 54 52 50 50 49 47 46 42 40 41 42 42 41 41 39 38 38 38 38 36 35 36 38 41 41 41 40 39 39 38 38 38 39 40 42 44 46 47 49 50 50 48
63 64 65 66 66 66 65 65 65 64 64 64 63 62 61 58 55 52 50 46 46 50 56 61 64 67 70 73 77 81 82 82 81 80 79 78 77 73 69 66 63 61 60 58 56 53 53 53 51 49 45 40 41 43 43 41 41 41 40 39 38 39 37 36 36 38 40 39 38 38 37 37 38 39 40 40 41 42 44 45 47 49 50 50 49
65 66 66 66 67 66 66 65 65 64 64 64 63 63 61 60 57 54 52 47 44 47 52 57 63 67 69 73 77 80 81 81 81 81 81 80 79 76 71 67 66 66 64 61 59 57 55 54 53 51 47 42 41 44 43 42 43 43 41 39 38 38 38 37 37 39 40 38 37 37 37 37 39 40 40 40 41 42 43 45 46 48 50 50 49
67 67 67 67 67 67 66 66 66 65 64 64 64 64 62 60 58 55 52 47 43 43 47 54 61 66 68 72 76 79 80 80 80 81 81 81 80 77 72 69 69 68 66 62 59 58 57 55 53 51 48 44 42 42 43 44 44 45 44 40 38 38 39 39 38 39 39 37 36 36 36 37 39 39 40 40 41 42 43 44 46 48 49 50 50
68 68 68 68 68 68 67 67 67 66 66 65 64 65 63 60 58 56 53 48 42 40 43 50 57 63 67 71 75 79 79 79 80 81 81 81 80 77 74 71 71 70 68 63 60 60 59 57 55 51 48 46 43 41 43 46 46 47 46 42 40 40 38 38 41 41 39 37 36 36 36 37 38 39 39 39 40 41 42 43 44 46 48 49 50
69 70 70 70 70 70 69 68 68 68 67 66 65 65 64 61 58 55 52 48 42 39 40 46 53 59 65 70 74 78 79 79 80 81 81 80 78 77 76 74 73 72 70 65 63 62 61 60 59 54 50 49 46 42 42 45 48 48 47 44 44 43 39 38 41 40 38 37 35 36 37 38 38 38 38 39 40 40 41 41 42 44 46 48 49
72 73 73 74 74 73 72 71 69 69 68 67 67 66 65 62 58 53 50 47 42 38 38 43 49 55 62 67 73 77 79 80 81 81 81 80 79 78 77 76 75 74 71 69 68 66 63 63 62 59 55 52 50 46 42 43 48 50 50 48 47 44 41 39 39 38 38 38 37 36 38 39 39 38 38 39 39 39 39 40 40 42 44 46 48
74 76 77 77 78 77 75 74 72 70 69 69 69 68 65 62 57 52 48 45 42 38 37 41 45 51 58 64 70 75 78 81 82 82 82 82 81 79 78 77 77 76 73 71 70 69 67 65 64 62 59 54 52 50 45 45 49 53 53 51 47 44 42 40 40 39 39 39 39 39 40 40 39 38 38 39 39 39 39 39 40 41 43 45 47
77 79 80 80 81 81 79 77 75 73 71 70 69 68 65 60 56 51 45 43 41 38 36 38 42 47 53 60 66 71 77 81 82 82 82 82 81 80 78 77 77 77 75 74 73 72 70 67 64 64 61 57 55 52 48 47 51 55 55 52 48 45 42 42 43 42 41 40 40 41 42 41 39 38 38 40 40 39 39 40 40 41 43 44 46
79 81 82 83 84 84 83 81 78 75 73 72 70 68 62 57 53 48 43 41 40 38 36 37 40 43 49 55 61 67 74 79 81 81 81 81 81 79 78 77 78 78 76 76 74 73 70 68 66 64 62 59 57 54 51 50 52 55 56 53 51 48 44 44 43 42 41 40 39 41 41 40 39 39 41 42 41 40 40 41 41 41 42 44 45
82 83 84 85 85 86 85 84 81 77 74 73 71 66 59 54 50 45 41 39 39 37 36 37 38 40 45 51 57 63 69 76 79 80 80 80 79 79 78 78 78 77 77 76 74 72 69 68 67 64 62 61 60 58 56 53 52 55 57 55 54 51 47 46 44 41 40 39 39 40 40 41 43 46 46 44 42 41 41 41 42 42 42 43 43
83 84 85 86 87 87 87 85 83 79 75 73 70 64 57 51 46 41 38 38 37 37 37 36 36 38 42 47 53 59 65 71 77 79 79 79 78 78 78 78 77 76 76 76 74 71 70 68 67 65 63 63 62 61 60 56 54 56 59 57 55 53 50 48 46 44 41 41 42 43 43 45 50 51 48 45 42 41 42 42 42 42 42 42 43
84 86 87 88 88 89 88 86 83 79 76 73 67 61 54 48 43 38 36 36 36 36 37 35 35 36 39 43 49 54 60 67 73 76 78 78 77 77 77 77 76 76 76 75 73 71 70 69 68 66 66 66 65 63 62 59 56 58 61 59 55 54 53 51 49 45 42 43 46 48 48 50 52 50 47 44 42 42 43 42 42 42 42 43 43
85 87 89 90 90 90 89 86 83 79 75 70 64 57 51 46 40 35 34 34 34 35 35 34 33 35 37 40 44 50 56 63 68 73 76 77 77 76 76 76 75 75 74 73 72 72 71 70 69 69 69 68 66 64 62 60 58 60 63 61 56 54 54 52 49 45 43 46 48 50 51 51 49 48 46 44 43 43 42 42 42 42 42 43 43
86 88 89 90 90 90 90 88 83 78 73 67 60 53 48 44 38 33 32 33 33 34 34 32 32 33 35 38 41 46 52 58 64 69 74 76 76 76 76 76 75 74 72 71 71 71 71 71 71 71 71 69 67 65 62 60 58 60 63 63 59 55 53 53 51 47 46 49 49 49 50 49 47 47 47 45 44 44 43 42 42 42 43 43 43
87 88 89 90 90 90 90 87 83 77 70 64 57 50 46 41 35 31 31 32 33 33 32 30 30 31 33 36 38 42 48 54 60 65 70 73 75 75 75 75 75 73 72 71 70 69 71 71 72 72 72 69 68 66 62 60 59 61 63 64 61 56 53 53 53 50 49 50 50 48 47 47 47 48 48 46 46 46 45 44 43 44 44 44 44
89 89 90 90 90 90 89 87 82 75 67 61 54 48 44 39 33 30 31 31 32 32 31 30 29 29 30 33 35 39 44 50 55 61 66 70 72 73 73 73 74 73 72 71 69 68 70 71 71 72 72 69 67 66 63 62 61 61 62 64 63 59 54 53 55 54 50 50 50 48 46 46 49 49 48 47 47 48 47 46 46 46 46 46 46
91 91 90 90 89 89 87 84 79 71 63 57 51 45 41 37 32 30 30 31 32 31 30 29 28 27 27 28 30 34 39 45 51 56 62 67 70 72 71 69 69 72 72 69 67 68 70 71 71 72 72 70 69 67 65 64 63 61 61 63 64 59 55 54 55 55 52 50 50 49 48 49 50 50 49 48 49 49 49 49 49 49 48 49 49
Wind_Direction
9 9 16 22 26 30 32 33 25 13 4 358 357 346 334 326 302 275 258 251 236 221 223 233 239 251 257 241 227 222 221 220 219 215 214 222 228 228 224 220 220 219 218 223 227 226 228 220 198 179 171 171 169 167 165 163 164 167 171 175 177 176 179 180 177 169 162 161 160 159 158 159 158 153 150 146 139 130 121 117 114 112 109 96 81
21 26 33 34 29 26 28 28 19 9 355 351 357 355 347 339 324 298 272 250 226 218 223 235 247 260 263 249 235 225 222 222 220 216 217 224 231 231 224 220 221 219 218 223 226 225 223 217 205 189 181 177 174 173 171 167 165 167 170 176 179 181 182 183 182 176 168 164 162 162 161 162 162 160 156 154 149 143 139 133 127 123 117 103 88
34 38 38 36 33 31 33 15 357 354 344 345 347 340 338 333 316 291 265 240 220 222 231 239 250 261 262 248 236 227 222 222 220 220 223 229 233 230 225 223 223 221 218 221 224 225 223 217 207 194 186 183 178 178 179 175 170 170 172 176 181 184 185 187 186 183 176 170 167 165 164 165 166 166 163 161 157 153 153 148 141 135 127 113 99
30 26 23 31 49 49 44 31 9 356 337 350 358 342 307 288 289 275 239 220 213 222 236 248 255 259 258 244 234 229 225 223 220 221 225 230 231 230 228 227 226 223 219 219 220 222 223 220 211 197 187 184 181 182 184 183 178 176 177 179 181 184 188 190 190 189 185 180 175 173 172 172 174 176 175 170 166 163 163 160 155 150 141 127 111
11 359 347 356 15 3 359 4 8 5 346 348 359 2 3 299 296 299 260 210 207 220 236 258 269 269 261 240 231 229 227 225 222 221 224 228 231 232 233 232 229 225 221 220 218 218 220 220 215 206 194 185 181 182 187 190 188 184 183 183 184 185 189 192 193 193 192 188 186 184 184 186 187 189 187 182 175 172 172 170 167 164 157 146 126
327 319 317 316 307 309 315 314 320 332 343 340 335 344 2 13 342 305 296 266 239 239 248 269 281 284 273 246 230 229 230 227 225 225 225 227 232 232 233 234 231 227 223 222 218 215 216 217 216 212 206 198 187 181 185 191 195 195 191 189 190 190 190 192 194 195 196 195 193 192 193 194 196 197 195 189 182 178 178 177 175 174 169 163 145
286 293 302 297 288 286 286 291 291 291 305 322 329 339 357 7 27 248 283 290 292 283 272 276 283 278 261 244 233 232 233 231 231 231 228 229 233 233 231 231 230 227 224 222 220 216 214 215 214 213 214 212 204 195 187 186 193 201 202 199 197 196 196 194 194 196 197 198 197 196 195 195 197 198 196 192 185 182 181 181 179 178 176 172 160
280 284 289 284 284 280 272 272 274 272 274 289 312 336 4 3 360 5 264 270 278 279 272 271 276 264 239 223 225 231 236 236 235 236 234 232 235 236 234 231 227 225 222 221 222 218 214 214 214 212 214 217 214 210 204 194 187 192 203 207 206 204 203 199 196 196 197 198 199 198 196 193 194 195 196 192 187 184 183 182 181 180 179 177 172
281 281 282 280 285 287 277 265 255 253 259 268 276 283 307 340 335 333 303 274 271 275 274 266 265 262 249 229 220 225 235 238 237 239 238 235 236 238 237 231 224 220 218 219 221 219 215 214 215 214 213 217 218 216 216 211 200 186 190 205 211 210 209 207 202 198 197 198 199 199 196 192 191 194 195 192 188 185 184 183 182 182 182 182 183
276 279 279 276 277 280 279 266 253 248 248 253 259 263 264 261 271 287 290 284 280 281 278 266 257 254 258 257 238 228 232 235 238 241 240 237 237 237 236 228 218 214 213 215 218 219 216 214 216 216 214 216 218 219 220 219 213 201 187 193 208 212 212 212 208 203 199 198 199 199 196 192 193 195 195 193 189 187 186 185 183 185 185 186 186
272 278 279 274 269 266 268 267 262 259 254 250 252 259 264 259 249 255 266 265 265 272 272 267 265 257 255 262 259 245 236 234 237 241 240 238 237 236 234 223 214 210 210 213 216 217 217 217 218 218 219 220 219 220 221 220 217 212 205 194 199 209 213 213 212 209 203 200 198 198 196 195 196 199 197 194 190 188 188 187 187 187 188 188 181
273 279 282 276 267 264 266 267 265 264 260 253 248 253 260 262 254 244 243 242 244 252 257 262 266 263 257 255 256 254 249 240 236 239 240 238 237 234 230 220 213 211 211 214 217 219 220 222 222 221 223 224 223 223 223 222 217 213 215 214 209 210 212 214 214 212 208 204 200 198 197 197 199 201 201 197 192 190 189 188 189 189 189 186 176
280 283 284 278 268 265 267 267 265 262 259 254 247 247 254 261 260 249 238 238 240 241 244 251 255 255 257 258 250 247 251 249 241 240 239 238 237 232 228 221 216 215 215 217 220 222 224 227 227 225 224 225 226 226 225 225 221 217 220 226 232 228 218 215 216 216 212 208 203 200 199 198 200 202 203 200 195 192 191 190 190 190 188 183 176
283 283 282 280 275 269 265 263 263 261 258 254 252 250 252 256 258 253 244 240 241 241 240 244 248 248 249 256 251 243 249 253 248 244 239 237 237 233 228 224 221 219 219 221 223 226 229 230 230 229 227 227 229 229 228 228 226 227 232 237 243 243 236 224 219 218 217 213 207 203 201 201 201 202 204 203 199 195 193 191 190 190 188 181 179
287 285 283 280 279 275 268 260 257 256 255 254 253 251 249 251 254 254 250 244 241 241 243 244 245 245 243 246 247 246 248 249 248 247 239 235 236 234 231 227 225 224 223 225 227 230 232 234 234 233 231 230 231 232 232 232 231 232 237 244 247 245 241 236 228 222 220 218 212 207 204 203 203 203 204 204 202 199 195 193 192 190 187 183 183
292 291 288 283 279 276 271 262 255 252 253 253 252 250 245 244 247 250 252 251 246 241 243 246 245 244 243 243 243 243 242 241 242 245 242 237 235 234 232 230 229 228 227 228 229 232 234 236 237 237 235 232 232 233 234 234 234 235 239 244 246 245 241 238 235 228 222 221 217 212 208 205 205 205 205 205 203 201 198 195 194 192 189 186 187
299 296 294 290 285 279 274 268 261 256 254 253 252 251 247 241 238 242 246 250 251 247 243 243 245 247 245 245 244 241 239 239 239 240 239 238 236 234 232 232 231 231 232 232 232 234 236 236 238 240 239 236 234 234 235 235 235 236 239 240 242 246 244 238 236 234 226 222 220 217 212 208 207 207 207 206 204 202 200 198 197 195 192 190 192
307 304 302 299 295 290 283 276 269 264 260 257 253 252 251 247 240 238 240 243 247 250 247 244 244 246 245 243 245 243 242 241 238 237 237 239 238 234 234 234 233 233 235 235 235 236 236 237 240 242 243 241 237 235 236 237 237 237 238 239 242 248 247 239 234 234 230 224 220 219 217 213 209 209 208 208 206 204 202 200 199 198 196 195 197
310 308 307 304 301 297 292 284 274 267 262 259 255 252 252 252 248 244 242 241 242 245 246 244 243 244 243 242 241 242 243 243 238 235 235 237 238 235 234 234 234 235 236 237 236 235 234 237 241 244 245 243 240 237 237 238 239 240 240 242 245 248 248 241 232 231 231 226 221 219 219 217 213 211 210 209 209 206 205 203 202 201 200 200 201
310 309 308 307 304 301 298 293 285 275 267 261 257 253 251 252 252 249 246 244 244 243 241 241 242 243 243 242 240 240 241 242 239 236 233 231 234 236 235 233 233 234 236 237 237 235 236 239 242 245 246 244 241 238 237 238 240 242 242 243 246 247 250 245 231 227 229 227 223 220 219 220 217 214 212 211 211 209 207 206 205 204 203 203 204
309 309 308 307 305 303 300 296 292 287 280 271 264 258 254 252 251 250 248 246 245 245 241 239 241 243 244 243 242 241 240 240 239 238 235 231 230 235 236 234 232 233 235 236 237 237 238 240 242 242 244 243 240 237 236 237 239 242 243 244 246 248 253 250 235 226 226 227 225 222 220 220 220 217 214 213 212 212 210 208 207 207 206 206 207
309 309 309 308 306 304 301 298 295 291 287 282 275 268 261 256 252 251 250 248 246 245 242 239 239 241 242 242 242 242 241 239 237 237 236 235 234 234 236 235 233 232 233 234 235 236 238 240 240 239 240 240 239 237 237 237 239 241 244 246 247 248 252 252 239 226 225 226 225 224 222 221 222 220 217 215 214 214 212 211 210 209 209 209 209
310 310 311 310 309 307 304 300 297 293 289 286 282 277 271 265 258 254 252 251 249 247 245 242 240 240 239 239 240 241 241 238 238 238 238 237 236 235 236 236 235 234 234 234 233 234 237 240 240 237 238 239 238 238 238 239 240 242 245 247 248 249 250 250 241 228 223 225 226 226 225 223 223 223 221 217 215 215 214 213 212 212 212 211 211
308 309 309 309 308 306 303 300 296 293 290 287 285 283 279 274 268 261 255 252 251 249 247 245 243 240 238 237 237 239 240 239 239 241 241 238 236 235 235 236 236 237 236 236 235 234 236 240 240 238 237 237 237 237 238 239 241 243 246 249 250 251 250 248 241 229 223 224 226 227 227 226 225 225 224 221 218 216 216 215 214 214 214 213 213
305 306 307 306 305 303 301 298 295 292 289 287 286 284 282 279 274 269 262 255 251 249 248 246 244 242 240 238 237 237 239 240 242 243 241 239 237 234 234 234 235 237 238 237 237 235 234 237 239 237 236 235 234 235 237 240 241 242 244 247 250 251 250 246 238 229 223 223 225 227 228 228 227 226 225 224 220 218 217 217 216 216 215 215 215
304 305 305 304 304 302 301 298 295 293 290 288 286 284 282 279 275 272 268 261 254 249 247 245 244 242 241 240 239 238 238 240 242 243 241 239 237 235 231 230 232 235 237 238 238 235 235 237 237 236 234 232 232 233 236 240 242 242 244 247 251 252 250 244 235 227 222 222 224 226 228 230 229 227 226 225 223 220 219 218 218 217 217 217 217
303 304 304 305 305 304 303 301 298 295 292 290 288 285 282 279 275 271 268 264 258 251 247 244 243 241 240 240 240 239 238 238 239 241 241 238 237 236 233 230 230 233 235 238 241 240 239 239 236 234 233 232 232 234 237 241 243 244 245 247 250 252 249 242 232 225 221 221 223 225 227 230 231 230 227 225 225 223 220 220 219 219 219 219 219
303 304 305 306 306 305 304 303 301 298 294 292 290 288 284 281 276 272 267 263 259 253 248 244 243 241 239 239 239 238 238 238 237 238 239 238 235 235 236 233 230 231 233 237 241 241 242 242 237 234 234 233 235 237 240 242 243 244 244 245 248 248 245 239 231 225 221 221 223 224 226 230 232 232 229 226 225 225 222 221 221 221 221 221 220
305 306 306 307 306 306 305 304 302 300 297 294 293 291 288 284 279 275 270 264 258 253 248 244 243 241 239 238 238 237 236 236 236 235 236 237 235 234 235 234 232 231 232 235 239 240 241 242 240 236 235 236 238 239 241 242 242 242 242 245 248 247 242 237 231 226 223 223 224 225 227 230 232 234 232 228 225 225 224 223 222 222 223 223 222
306 307 308 307 307 306 306 305 304 301 299 297 295 293 291 287 283 279 273 266 259 253 248 243 241 240 238 237 237 236 234 234 235 235 235 235 235 235 234 233 234 233 232 233 236 238 239 241 240 237 236 238 239 239 240 241 241 240 240 243 247 248 243 237 232 228 226 227 227 228 229 231 233 234 233 230 226 225 225 224 223 223 224 225 225
307 308 308 308 307 307 307 306 305 303 302 300 298 297 294 291 288 283 277 269 260 254 248 243 240 238 237 237 236 236 234 234 234 235 235 234 235 237 236 233 232 233 233 233 234 236 237 240 240 237 236 238 239 239 239 241 241 239 239 242 245 246 241 237 233 229 228 229 230 231 231 232 234 235 234 232 228 225 225 225 225 224 225 226 226
308 308 308 308 308 307 307 307 306 305 304 302 301 300 298 295 291 287 281 272 262 254 249 244 240 237 236 236 235 234 234 233 233 234 235 234 234 236 236 232 230 231 233 233 232 233 234 238 240 237 235 236 238 238 239 240 240 238 238 240 242 242 239 236 234 230 228 230 231 232 232 234 235 235 235 233 229 226 225 225 226 225 225 226 227
308 308 308 308 308 307 307 307 307 306 305 304 303 303 301 298 295 291 285 276 263 254 249 245 241 237 235 234 233 233 232 232 232 233 234 234 234 235 235 233 231 230 231 232 232 232 231 233 236 234 231 234 236 236 238 239 238 237 237 239 241 240 237 236 233 230 228 229 230 232 232 234 236 236 235 234 231 227 226 226 226 226 226 226 227
309 309 309 308 308 308 308 307 307 307 306 306 306 305 303 301 299 295 289 279 265 254 248 245 241 237 234 233 232 232 231 231 231 231 232 233 235 235 234 233 232 231 231 231 232 233 231 229 231 230 228 232 236 236 236 236 235 235 236 239 241 240 236 235 233 230 230 229 230 231 233 234 236 237 236 235 232 229 227 226 226 226 226 226 227
310 310 309 308 308 308 308 308 307 307 307 307 307 306 305 303 301 297 292 283 268 256 248 244 241 237 234 231 231 232 231 229 228 228 229 231 234 235 235 233 233 232 231 231 232 232 231 228 228 228 228 231 235 235 235 234 234 234 234 237 241 242 238 235 232 230 230 230 230 232 234 235 236 237 236 235 232 230 228 228 227 226 226 226 226
310 310 310 309 309 308 308 308 308 308 307 307 307 306 305 304 302 299 294 286 273 259 250 244 241 238 234 230 229 232 232 229 227 227 228 230 231 234 235 234 232 232 232 231 230 230 230 227 227 228 229 230 233 235 234 233 232 232 232 235 239 240 237 234 232 231 230 231 232 232 233 235 237 238 237 236 233 231 229 229 228 226 225 225 226
311 311 310 310 309 309 309 310 310 309 309 308 308 307 305 304 303 299 295 288 276 263 253 245 241 238 235 231 229 230 231 229 227 226 227 228 229 231 233 233 233 233 233 231 229 228 228 227 226 227 230 230 232 234 233 232 231 231 231 233 236 237 236 233 231 230 230 231 232 232 234 236 238 239 239 237 234 231 230 228 227 225 224 224 225
310 310 310 310 310 311 311 311 312 311 311 310 309 308 306 305 303 299 295 288 277 265 255 247 242 238 235 232 230 229 229 228 227 226 226 227 228 228 231 232 232 232 232 232 229 227 227 228 226 226 229 232 231 232 232 232 231 231 231 232 234 236 235 234 231 230 230 230 231 235 236 237 239 240 239 237 234 232 230 228 226 224 223 224 225
310 310 311 311 312 312 313 313 313 313 313 312 311 309 307 305 302 299 295 288 278 266 257 249 243 238 235 232 230 229 227 226 226 226 226 226 226 227 229 231 231 231 231 231 231 228 227 229 230 227 228 232 233 232 233 233 232 232 231 231 233 233 231 231 232 232 231 229 230 235 236 236 240 241 240 237 235 232 230 228 225 223 223 224 225
311 312 313 313 314 314 314 315 315 315 315 314 313 311 309 305 302 298 293 286 277 267 257 250 244 238 235 232 230 229 227 225 224 224 224 224 224 224 227 229 230 230 229 230 231 231 229 230 232 231 229 231 234 235 235 235 234 233 232 230 232 232 230 230 233 234 231 228 229 234 236 236 239 241 240 238 235 233 231 228 226 224 224 224 226
313 314 315 315 315 315 316 316 316 316 316 315 314 312 309 305 301 297 291 284 276 267 258 251 245 239 235 232 230 228 226 225 224 224 223 223 222 222 224 227 228 229 229 230 231 232 231 230 231 233 231 230 233 236 235 236 235 233 232 231 232 233 231 230 232 232 231 230 230 234 236 235 236 239 241 238 235 232 231 229 227 225 225 225 226
315 316 316 316 316 317 317 316 317 317 317 316 315 313 309 304 299 295 289 281 274 267 258 251 245 239 235 232 229 227 226 225 224 224 223 223 222 222 223 225 227 229 229 229 229 230 230 230 230 232 232 230 232 234 234 236 234 233 232 231 231 231 230 229 231 232 234 234 233 233 234 233 235 239 241 238 234 231 230 229 228 226 226 227 228
316 316 316 317 317 317 317 317 317 318 318 317 315 312 308 302 298 293 287 278 271 265 257 250 244 239 234 232 229 227 225 224 224 224 223 223 222 221 222 223 225 228 229 229 229 229 229 229 228 230 231 231 231 232 233 236 235 232 232 232 230 230 229 230 232 233 235 235 234 233 232 232 235 239 239 236 233 230 230 229 228 228 228 228 229
316 316 316 317 317 317 317 317 318 318 318 317 315 311 306 301 296 291 283 275 269 263 255 248 243 239 234 231 229 226 224 224 223 223 222 222 222 221 221 221 223 226 228 229 229 228 228 228 227 228 230 231 231 230 231 235 234 231 230 230 230 230 229 231 232 231 232 234 233 232 230 228 231 235 235 233 231 229 229 229 229 229 229 229 230
315 315 316 317 317 317 316 317 317 318 319 318 314 309 304 300 294 288 278 271 266 261 254 246 240 238 235 232 229 226 224 223 223 222 221 221 221 220 220 221 222 224 226 227 227 227 227 227 226 226 228 230 230 230 230 232 233 230 228 228 229 229 229 231 231 228 229 232 232 232 229 226 228 232 232 230 228 227 227 228 229 229 230 231 231
315 315 316 316 316 316 316 316 317 319 319 317 313 308 303 299 293 285 275 268 263 258 252 246 239 236 234 232 229 226 223 222 222 222 221 220 219 219 219 220 221 223 224 225 226 225 225 225 225 225 227 228 229 229 229 229 231 229 227 226 228 228 228 230 230 227 229 231 231 230 229 228 229 230 229 227 226 226 227 227 228 229 230 231 231
315 316 316 316 316 316 316 316 317 319 319 316 311 306 303 298 292 282 272 264 259 254 250 245 239 236 234 232 229 226 223 221 220 221 221 220 218 218 218 219 220 222 223 224 224 224 223 223 223 224 226 227 228 229 228 227 228 229 227 226 227 227 228 230 230 228 229 231 230 228 229 230 230 229 227 227 226 226 227 227 228 229 229 230 230
315 315 315 315 315 316 316 316 317 319 318 315 310 306 302 297 290 279 268 261 255 249 245 242 239 237 235 232 229 225 221 219 219 219 220 220 219 217 217 218 219 221 222 222 222 222 222 222 223 224 225 227 229 230 228 226 226 227 227 227 228 228 228 229 229 228 229 230 229 229 230 231 230 228 228 227 228 228 228 228 228 228 229 229 230
314 314 314 314 315 315 315 315 316 318 317 313 309 305 301 295 287 275 264 257 251 244 239 238 237 237 236 233 229 225 220 218 217 217 218 219 219 218 218 218 219 220 220 221 221 221 221 222 223 224 226 227 229 230 228 224 224 226 227 227 228 227 227 229 229 228 228 228 228 230 232 232 230 229 229 228 229 230 229 229 228 228 229 230 230
313 314 314 315 315 315 314 314 315 316 315 311 308 304 299 292 284 271 260 252 246 239 234 233 232 232 234 234 230 225 221 217 215 215 216 217 217 218 219 219 219 219 219 220 219 220 221 222 223 225 226 227 228 229 226 222 223 225 226 227 228 228 227 229 229 229 228 228 228 230 233 234 231 230 229 229 230 231 231 230 230 230 230 231 232
313 314 314 315 314 314 313 313 313 313 313 309 306 302 296 289 279 267 254 246 240 234 228 226 225 225 228 232 232 228 222 217 215 215 215 216 216 217 218 219 219 219 220 220 219 219 220 221 223 224 225 225 226 227 224 220 221 224 225 227 229 228 227 228 230 229 229 229 228 229 231 233 232 231 231 230 231 232 233 233 233 233 233 233 234
Height
10932 10932 10930 10927 10925 10925 10925 10926 10928 10930 10930 10928 10927 10927 10928 10929 10931 10933 10935 10936 10936 10937 10938 10939 10940 10939 10939 10940 10941 10942 10943 10944 10944 10946 10947 10948 10950 10951 10953 10954 10956 10958 10959 10959 10959 10959 10959 10959 10959 10958 10958 10958 10958 10959 10959 10959 10960 10961 10961 10962 10963 10964 10965 10967 10968 10968 10969 10970 10971 10972 10972 10973 10973 10974 10974 10975 10975 10976 10976 10976 10976 10976 10976 10977 10977
10932 10931 10930 10928 10928 10928 10928 10927 10928 10930 10931 10929 10927 10927 10929 10930 10932 10934 10935 10935 10935 10936 10937 10938 10938 10938 10938 10938 10939 10940 10941 10942 10943 10945 10946 10947 10949 10950 10952 10953 10954 10956 10957 10958 10958 10958 10958 10958 10958 10958 10958 10958 10958 10958 10959 10959 10960 10960 10961 10962 10963 10964 10965 10966 10967 10968 10969 10970 10971 10972 10973 10974 10974 10974 10975 10975 10976 10976 10976 10977 10977 10977 10977 10977 10977
10932 10931 10930 10931 10933 10933 10931 10930 10930 10930 10931 10930 10928 10928 10929 10932 10934 10934 10934 10934 10934 10935 10935 10936 10937 10936 10936 10937 10937 10938 10939 10941 10942 10944 10945 10947 10948 10949 10950 10952 10953 10954 10955 10956 10957 10957 10957 10957 10958 10958 10958 10958 10958 10958 10959 10959 10959 10960 10961 10962 10963 10964 10965 10966 10967 10968 10969 10970 10971 10972 10973 10974 10975 10975 10975 10976 10976 10976 10977 10977 10977 10978 10978 10978 10978
10933 10933 10933 10934 10935 10935 10933 10933 10932 10931 10931 10931 10930 10929 10929 10932 10934 10933 10933 10932 10932 10933 10934 10934 10935 10935 10935 10935 10936 10937 10938 10939 10940 10942 10943 10945 10946 10948 10949 10950 10951 10953 10954 10954 10955 10956 10956 10957 10957 10957 10957 10958 10958 10958 10958 10959 10959 10959 10960 10961 10962 10963 10965 10966 10967 10968 10969 10970 10971 10972 10973 10974 10975 10975 10976 10976 10976 10977 10977 10978 10978 10978 10978 10978 10978
10935 10936 10936 10936 10935 10934 10934 10933 10932 10931 10931 10931 10931 10930 10930 10931 10933 10934 10933 10931 10931 10931 10932 10933 10934 10934 10935 10934 10935 10936 10937 10938 10939 10940 10941 10942 10944 10945 10947 10948 10949 10951 10952 10953 10953 10954 10955 10955 10956 10956 10957 10957 10958 10958 10958 10959 10959 10959 10960 10961 10962 10963 10964 10965 10967 10968 10969 10969 10970 10971 10972 10973 10974 10975 10975 10976 10976 10977 10977 10978 10978 10979 10979 10979 10979
10935 10935 10935 10935 10933 10932 10932 10931 10930 10931 10931 10931 10931 10931 10931 10931 10932 10934 10935 10933 10931 10930 10930 10931 10932 10934 10935 10935 10935 10935 10936 10937 10938 10938 10939 10939 10941 10942 10944 10945 10947 10949 10950 10951 10952 10952 10953 10954 10955 10955 10956 10957 10957 10957 10958 10958 10959 10959 10960 10960 10961 10962 10963 10964 10966 10967 10968 10969 10970 10970 10971 10973 10974 10974 10975 10975 10976 10977 10978 10978 10979 10979 10979 10979 10979
10932 10932 10934 10934 10932 10931 10930 10929 10929 10931 10931 10931 10930 10930 10929 10930 10931 10932 10935 10934 10932 10930 10929 10929 10929 10931 10935 10936 10935 10935 10936 10936 10937 10937 10937 10937 10938 10939 10940 10942 10944 10946 10948 10949 10950 10951 10951 10952 10953 10954 10955 10956 10956 10957 10957 10958 10959 10959 10960 10960 10961 10962 10963 10964 10965 10966 10967 10968 10969 10970 10971 10971 10973 10974 10974 10975 10975 10976 10977 10978 10978 10979 10979 10980 10980
10933 10932 10933 10931 10930 10929 10928 10928 10927 10928 10929 10929 10930 10929 10928 10928 10928 10929 10930 10931 10931 10929 10928 10927 10927 10928 10930 10931 10931 10933 10934 10934 10935 10935 10935 10935 10935 10936 10937 10938 10940 10942 10945 10947 10948 10949 10949 10950 10951 10953 10954 10955 10955 10956 10957 10957 10958 10959 10960 10960 10961 10962 10962 10963 10964 10965 10966 10967 10968 10969 10970 10970 10971 10972 10973 10974 10975 10976 10977 10977 10978 10979 10979 10980 10980
10934 10933 10931 10929 10928 10927 10926 10926 10926 10926 10926 10927 10928 10929 10928 10927 10926 10926 10927 10927 10927 10927 10926 10926 10926 10926 10927 10927 10927 10928 10930 10931 10932 10933 10933 10934 10934 10933 10934 10935 10936 10938 10941 10943 10945 10947 10948 10949 10950 10951 10952 10953 10954 10955 10956 10956 10957 10958 10959 10959 10960 10961 10962 10963 10963 10964 10965 10966 10967 10968 10969 10970 10970 10971 10972 10973 10974 10975 10976 10977 10978 10979 10979 10980 10980
10932 10931 10930 10928 10927 10926 10924 10925 10925 10925 10925 10925 10925 10926 10926 10926 10925 10924 10924 10925 10924 10924 10924 10924 10924 10924 10925 10925 10925 10924 10925 10928 10930 10930 10931 10932 10932 10931 10931 10932 10933 10935 10937 10940 10942 10944 10946 10947 10949 10950 10951 10952 10953 10954 10954 10955 10956 10956 10957 10958 10959 10960 10961 10962 10963 10963 10964 10965 10966 10967 10968 10969 10970 10970 10971 10972 10973 10974 10975 10976 10977 10978 10979 10980 10980
10929 10929 10927 10926 10925 10924 10923 10923 10923 10923 10923 10922 10922 10923 10923 10923 10923 10922 10922 10923 10923 10922 10922 10922 10922 10922 10922 10923 10923 10923 10923 10925 10926 10927 10928 10929 10930 10930 10930 10930 10931 10933 10935 10937 10939 10941 10943 10945 10947 10948 10949 10951 10951 10952 10953 10954 10954 10955 10956 10957 10958 10959 10959 10960 10961 10962 10963 10964 10965 10966 10967 10968 10969 10970 10970 10971 10972 10973 10974 10975 10977 10978 10979 10980 10980
10926 10924 10923 10923 10922 10921 10920 10920 10920 10919 10919 10919 10919 10919 10919 10920 10920 10919 10920 10922 10921 10920 10920 10921 10921 10920 10920 10921 10921 10922 10922 10923 10923 10923 10925 10926 10928 10928 10929 10929 10931 10932 10934 10935 10937 10939 10941 10943 10945 10946 10948 10949 10950 10950 10951 10952 10953 10954 10955 10956 10957 10958 10958 10959 10960 10961 10961 10962 10963 10964 10965 10966 10968 10969 10969 10970 10971 10972 10973 10974 10976 10977 10978 10979 10980
10922 10920 10918 10918 10918 10918 10917 10915 10915 10914 10915 10915 10915 10915 10916 10916 10917 10917 10918 10919 10919 10918 10918 10919 10919 10918 10919 10919 10919 10919 10920 10921 10921 10922 10923 10924 10925 10926 10927 10928 10929 10930 10932 10933 10935 10937 10938 10940 10942 10943 10945 10946 10947 10948 10949 10950 10951 10952 10953 10955 10956 10957 10957 10958 10958 10959 10960 10960 10961 10962 10963 10965 10966 10967 10968 10969 10970 10971 10972 10973 10975 10976 10977 10978 10979
10919 10916 10914 10912 10912 10913 10913 10912 10910 10910 10910 10911 10911 10912 10912 10913 10914 10914 10914 10915 10915 10915 10916 10916 10916 10916 10916 10917 10916 10916 10918 10919 10920 10920 10921 10922 10924 10925 10925 10926 10927 10929 10930 10932 10933 10934 10936 10937 10939 10941 10942 10943 10944 10945 10946 10948 10949 10950 10951 10953 10954 10956 10956 10957 10957 10957 10958 10959 10960 10961 10962 10963 10964 10966 10967 10968 10969 10970 10971 10972 10974 10975 10976 10977 10978
10915 10912 10910 10909 10908 10908 10908 10908 10907 10906 10905 10906 10906 10907 10909 10909 10909 10910 10910 10910 10911 10911 10913 10913 10912 10912 10913 10913 10913 10914 10916 10916 10917 10918 10919 10921 10922 10923 10923 10924 10926 10927 10928 10929 10931 10932 10934 10935 10936 10938 10939 10940 10942 10943 10944 10945 10947 10947 10949 10950 10952 10954 10955 10956 10956 10956 10956 10957 10958 10959 10960 10961 10963 10964 10965 10967 10968 10969 10970 10971 10972 10974 10975 10976 10977
10911 10909 10907 10906 10905 10903 10903 10903 10903 10902 10901 10901 10900 10901 10903 10903 10903 10904 10905 10905 10906 10907 10908 10909 10908 10909 10909 10909 10910 10912 10912 10913 10914 10914 10916 10918 10919 10920 10921 10922 10924 10926 10926 10927 10928 10930 10932 10933 10934 10936 10937 10938 10939 10940 10942 10943 10944 10945 10947 10948 10950 10951 10953 10954 10955 10955 10955 10955 10956 10957 10958 10960 10961 10962 10963 10965 10966 10968 10969 10970 10971 10972 10974 10975 10976
10907 10905 10903 10902 10900 10898 10897 10897 10897 10897 10896 10895 10894 10894 10895 10896 10898 10899 10899 10899 10900 10902 10903 10903 10904 10906 10907 10905 10907 10908 10908 10909 10911 10911 10913 10915 10916 10917 10919 10920 10922 10924 10924 10925 10926 10928 10929 10931 10932 10933 10934 10935 10936 10938 10939 10941 10942 10944 10945 10946 10947 10949 10950 10951 10953 10953 10954 10954 10955 10955 10956 10957 10959 10960 10961 10963 10964 10966 10967 10969 10970 10971 10972 10973 10975
10900 10899 10898 10896 10895 10893 10892 10892 10892 10891 10889 10889 10888 10887 10887 10889 10892 10893 10893 10894 10895 10896 10897 10898 10900 10902 10902 10901 10902 10904 10904 10907 10908 10909 10911 10912 10913 10915 10916 10917 10919 10921 10922 10923 10924 10926 10927 10928 10930 10931 10932 10933 10934 10935 10937 10939 10940 10941 10943 10944 10945 10946 10947 10948 10950 10951 10952 10952 10953 10954 10954 10955 10956 10958 10959 10961 10962 10964 10965 10967 10968 10969 10970 10972 10973
10893 10892 10891 10890 10889 10887 10886 10886 10886 10885 10883 10882 10883 10883 10882 10883 10885 10887 10887 10888 10889 10889 10889 10892 10894 10895 10896 10897 10898 10899 10900 10903 10904 10905 10908 10908 10909 10912 10913 10914 10916 10918 10919 10920 10922 10923 10924 10925 10926 10928 10929 10930 10931 10933 10934 10936 10937 10939 10940 10941 10942 10944 10944 10945 10947 10948 10949 10950 10951 10951 10952 10953 10954 10955 10957 10958 10960 10962 10963 10965 10966 10967 10969 10970 10971
10888 10887 10885 10884 10882 10881 10879 10879 10879 10878 10877 10877 10877 10877 10878 10878 10878 10879 10880 10881 10883 10883 10883 10884 10885 10886 10889 10892 10892 10893 10895 10898 10899 10901 10903 10904 10905 10907 10908 10911 10913 10914 10915 10917 10919 10919 10920 10922 10923 10924 10925 10927 10928 10929 10931 10932 10934 10936 10937 10938 10939 10940 10941 10942 10943 10945 10946 10948 10948 10949 10950 10951 10952 10953 10955 10956 10958 10960 10961 10963 10964 10965 10967 10968 10969
10883 10882 10880 10879 10877 10875 10874 10873 10872 10871 10870 10870 10870 10870 10871 10871 10871 10870 10871 10873 10875 10875 10875 10876 10876 10877 10882 10885 10886 10888 10890 10892 10893 10895 10897 10898 10899 10901 10903 10907 10909 10911 10912 10913 10914 10915 10916 10918 10919 10920 10921 10923 10924 10925 10927 10928 10930 10932 10933 10934 10936 10937 10938 10939 10940 10942 10943 10944 10946 10947 10947 10948 10950 10951 10952 10954 10956 10957 10959 10961 10962 10963 10965 10966 10967
10876 10875 10874 10873 10871 10870 10869 10867 10866 10865 10863 10862 10862 10862 10862 10862 10863 10862 10862 10865 10866 10865 10867 10869 10869 10870 10874 10877 10879 10881 10884 10886 10887 10889 10891 10892 10894 10896 10899 10902 10904 10905 10907 10909 10910 10911 10912 10913 10914 10916 10917 10918 10920 10922 10923 10925 10926 10928 10929 10930 10932 10933 10934 10935 10936 10938 10940 10941 10942 10944 10945 10946 10947 10948 10950 10952 10953 10955 10957 10958 10960 10961 10962 10964 10965
10869 10867 10866 10865 10864 10863 10861 10860 10859 10858 10856 10854 10854 10854 10853 10853 10854 10854 10854 10855 10856 10856 10857 10860 10861 10862 10865 10868 10870 10874 10877 10880 10881 10883 10886 10887 10889 10891 10894 10897 10899 10900 10902 10904 10905 10906 10907 10908 10909 10911 10912 10914 10916 10918 10920 10921 10922 10924 10925 10927 10928 10929 10930 10931 10932 10934 10936 10937 10939 10940 10942 10943 10944 10946 10947 10949 10951 10952 10954 10956 10957 10959 10960 10962 10963
10863 10862 10860 10859 10858 10856 10855 10853 10852 10850 10849 10847 10846 10845 10844 10843 10843 10843 10844 10845 10847 10847 10847 10850 10853 10854 10856 10859 10862 10865 10869 10873 10874 10877 10881 10882 10883 10886 10889 10892 10894 10895 10896 10898 10900 10901 10902 10903 10904 10906 10907 10909 10911 10913 10915 10917 10918 10920 10921 10923 10924 10925 10926 10927 10928 10929 10931 10933 10935 10936 10938 10940 10941 10943 10945 10946 10948 10950 10951 10953 10954 10956 10958 10959 10961
10858 10856 10855 10854 10853 10851 10849 10847 10845 10843 10842 10840 10839 10837 10835 10833 10832 10831 10832 10834 10836 10837 10837 10839 10843 10844 10846 10849 10853 10857 10861 10864 10866 10870 10875 10876 10878 10880 10883 10887 10889 10889 10890 10892 10894 10896 10897 10897 10899 10901 10903 10905 10906 10909 10911 10912 10914 10916 10917 10919 10920 10921 10922 10922 10923 10924 10926 10928 10930 10932 10934 10935 10937 10939 10941 10943 10945 10947 10948 10950 10952 10953 10955 10957 10958
10851 10849 10848 10846 10845 10844 10843 10841 10839 10836 10834 10832 10831 10829 10827 10824 10822 10820 10820 10822 10824 10826 10826 10827 10830 10833 10837 10840 10844 10848 10852 10856 10859 10862 10867 10870 10873 10874 10876 10880 10882 10883 10885 10886 10887 10890 10891 10891 10894 10897 10899 10900 10902 10904 10906 10908 10910 10911 10913 10915 10916 10917 10917 10917 10918 10919 10921 10923 10925 10927 10929 10931 10933 10935 10937 10939 10941 10943 10945 10947 10949 10951 10952 10954 10956
10845 10842 10840 10838 10836 10835 10834 10832 10830 10828 10826 10823 10821 10820 10818 10815 10813 10811 10809 10810 10812 10813 10815 10815 10816 10820 10826 10830 10833 10837 10842 10847 10851 10854 10858 10863 10867 10867 10869 10873 10875 10877 10879 10880 10882 10886 10887 10888 10891 10894 10895 10897 10899 10900 10902 10904 10905 10906 10908 10910 10911 10912 10912 10913 10913 10914 10916 10918 10920 10923 10925 10927 10929 10931 10933 10935 10937 10940 10942 10944 10946 10948 10949 10951 10953
10838 10835 10832 10830 10827 10825 10824 10823 10821 10819 10817 10814 10812 10809 10807 10805 10802 10800 10799 10799 10799 10801 10802 10803 10803 10807 10814 10818 10820 10825 10832 10836 10840 10845 10849 10854 10858 10860 10863 10867 10869 10871 10873 10875 10877 10880 10882 10885 10887 10889 10892 10894 10896 10897 10899 10900 10901 10901 10903 10905 10906 10907 10908 10908 10909 10910 10912 10914 10916 10918 10920 10922 10924 10927 10929 10931 10933 10936 10938 10941 10943 10945 10946 10948 10950
10830 10827 10824 10821 10818 10816 10814 10812 10811 10809 10807 10804 10802 10799 10797 10795 10792 10789 10787 10787 10787 10788 10789 10791 10792 10795 10800 10804 10807 10813 10820 10824 10829 10835 10839 10844 10848 10852 10855 10858 10861 10865 10868 10870 10872 10873 10876 10881 10883 10885 10889 10891 10893 10894 10895 10895 10896 10897 10899 10901 10902 10903 10903 10904 10905 10907 10909 10911 10913 10914 10916 10918 10920 10922 10924 10927 10929 10932 10934 10937 10940 10942 10944 10945 10947
10822 10819 10816 10813 10810 10806 10803 10801 10800 10798 10796 10794 10792 10789 10787 10785 10782 10778 10775 10774 10774 10775 10777 10779 10780 10782 10786 10790 10794 10800 10807 10812 10817 10823 10828 10834 10838 10842 10846 10850 10854 10859 10861 10864 10866 10867 10870 10876 10878 10881 10885 10887 10888 10890 10891 10890 10891 10893 10895 10897 10898 10899 10900 10900 10902 10904 10906 10908 10910 10912 10913 10915 10916 10918 10920 10922 10925 10928 10930 10933 10936 10938 10941 10943 10944
10815 10812 10808 10805 10801 10798 10794 10791 10788 10787 10785 10783 10781 10779 10776 10774 10771 10767 10764 10762 10762 10762 10764 10767 10768 10770 10773 10776 10781 10787 10794 10800 10806 10811 10817 10824 10828 10832 10837 10842 10847 10851 10854 10858 10861 10861 10865 10869 10872 10876 10880 10882 10884 10885 10886 10886 10886 10888 10891 10893 10894 10894 10896 10897 10898 10900 10903 10905 10907 10909 10910 10911 10913 10914 10916 10918 10920 10923 10926 10929 10932 10935 10937 10939 10941
10809 10805 10801 10797 10793 10789 10785 10781 10778 10775 10773 10771 10770 10767 10764 10762 10760 10757 10753 10751 10750 10750 10752 10754 10756 10758 10761 10764 10769 10775 10781 10787 10794 10799 10805 10813 10818 10822 10828 10833 10838 10842 10846 10852 10855 10856 10858 10863 10867 10870 10874 10876 10878 10879 10880 10881 10882 10885 10888 10889 10889 10890 10892 10893 10894 10896 10898 10901 10903 10905 10906 10908 10909 10910 10912 10914 10916 10918 10921 10924 10927 10930 10933 10935 10938
10802 10798 10794 10789 10785 10781 10777 10773 10769 10765 10762 10759 10758 10756 10752 10750 10748 10746 10742 10740 10739 10738 10739 10741 10744 10746 10749 10754 10758 10762 10769 10775 10781 10788 10795 10801 10807 10813 10819 10824 10829 10834 10839 10844 10848 10849 10853 10857 10861 10864 10867 10870 10872 10873 10874 10875 10877 10880 10883 10884 10884 10885 10888 10889 10891 10892 10894 10897 10899 10900 10902 10903 10905 10906 10908 10909 10911 10914 10916 10919 10922 10925 10928 10931 10934
10794 10790 10786 10782 10777 10773 10770 10766 10761 10757 10753 10749 10746 10744 10740 10738 10736 10734 10731 10728 10727 10725 10725 10728 10731 10735 10738 10742 10745 10749 10756 10764 10770 10776 10784 10789 10795 10803 10809 10815 10820 10826 10832 10837 10840 10843 10847 10851 10854 10857 10861 10864 10866 10867 10868 10870 10872 10874 10876 10878 10879 10881 10884 10886 10887 10889 10891 10893 10895 10897 10898 10900 10901 10902 10903 10905 10907 10909 10911 10914 10917 10920 10924 10927 10930
10786 10783 10778 10774 10770 10766 10762 10758 10754 10750 10745 10741 10737 10733 10729 10726 10724 10721 10718 10717 10716 10714 10713 10716 10719 10723 10726 10730 10733 10736 10743 10752 10759 10765 10772 10778 10784 10791 10799 10806 10812 10818 10823 10828 10833 10837 10840 10844 10847 10850 10854 10857 10859 10860 10863 10865 10867 10869 10871 10873 10875 10878 10880 10882 10883 10885 10888 10890 10892 10893 10895 10896 10897 10898 10899 10900 10902 10904 10906 10909 10912 10915 10919 10922 10925
10777 10774 10771 10766 10762 10758 10754 10750 10746 10742 10738 10733 10728 10724 10719 10716 10713 10710 10707 10706 10705 10703 10703 10704 10707 10711 10716 10720 10722 10725 10731 10740 10748 10755 10761 10767 10774 10781 10789 10796 10803 10807 10812 10819 10825 10830 10833 10837 10841 10843 10846 10850 10853 10855 10858 10861 10862 10864 10866 10868 10871 10874 10876 10878 10880 10881 10883 10886 10887 10889 10891 10892 10893 10895 10896 10896 10898 10899 10901 10904 10907 10910 10914 10917 10921
10769 10766 10762 10758 10753 10749 10745 10741 10737 10733 10729 10724 10719 10714 10710 10706 10702 10699 10697 10695 10695 10693 10693 10694 10696 10700 10706 10710 10713 10716 10722 10729 10737 10744 10751 10758 10764 10772 10779 10786 10793 10798 10803 10810 10817 10822 10827 10831 10834 10836 10840 10844 10847 10849 10852 10855 10857 10859 10862 10865 10868 10870 10872 10874 10876 10877 10879 10881 10882 10884 10886 10888 10889 10890 10892 10893 10893 10895 10897 10899 10902 10905 10909 10913 10916
10761 10758 10754 10750 10745 10740 10737 10732 10727 10723 10718 10714 10709 10703 10699 10696 10692 10688 10686 10685 10684 10684 10683 10683 10686 10690 10696 10701 10704 10707 10714 10720 10726 10734 10742 10748 10756 10764 10770 10776 10783 10789 10794 10802 10809 10814 10820 10823 10826 10830 10833 10837 10840 10843 10846 10849 10851 10854 10857 10862 10864 10866 10869 10871 10872 10873 10874 10876 10878 10879 10881 10883 10885 10886 10888 10889 10890 10891 10893 10895 10898 10901 10905 10908 10912
10753 10749 10744 10740 10735 10731 10727 10723 10718 10713 10708 10704 10699 10693 10688 10686 10682 10679 10676 10675 10674 10674 10674 10674 10676 10680 10685 10690 10694 10699 10706 10713 10718 10724 10732 10739 10748 10756 10761 10767 10773 10778 10786 10794 10800 10805 10812 10816 10819 10824 10827 10830 10834 10837 10840 10844 10846 10848 10853 10857 10858 10859 10863 10866 10867 10868 10870 10872 10873 10875 10876 10878 10880 10882 10884 10885 10886 10887 10890 10892 10894 10897 10901 10904 10908
10743 10739 10734 10729 10724 10720 10716 10712 10708 10703 10698 10693 10688 10683 10678 10674 10672 10669 10667 10665 10664 10665 10665 10665 10667 10670 10674 10679 10684 10689 10697 10704 10710 10715 10722 10729 10738 10746 10752 10757 10763 10769 10777 10784 10789 10796 10803 10808 10812 10816 10821 10824 10827 10830 10835 10839 10841 10843 10846 10849 10851 10854 10858 10860 10862 10865 10866 10868 10869 10870 10871 10873 10875 10878 10880 10881 10883 10884 10886 10888 10891 10893 10897 10900 10903
10733 10728 10723 10718 10713 10709 10705 10701 10698 10693 10688 10683 10678 10673 10667 10663 10661 10660 10658 10655 10655 10656 10657 10657 10658 10661 10664 10668 10673 10680 10686 10693 10699 10705 10712 10719 10727 10735 10743 10748 10753 10760 10768 10774 10780 10787 10793 10799 10805 10809 10814 10819 10820 10823 10828 10832 10833 10836 10839 10843 10846 10850 10853 10855 10858 10860 10862 10864 10865 10866 10867 10869 10872 10874 10876 10877 10879 10881 10883 10885 10887 10889 10892 10895 10898
10723 10718 10713 10708 10703 10698 10693 10691 10688 10684 10678 10673 10668 10663 10658 10653 10650 10649 10649 10647 10645 10646 10648 10649 10650 10653 10656 10659 10664 10670 10675 10681 10688 10696 10704 10711 10719 10726 10734 10740 10745 10752 10760 10766 10772 10777 10783 10791 10798 10802 10806 10811 10813 10817 10821 10823 10825 10829 10833 10838 10842 10844 10848 10850 10852 10855 10858 10860 10861 10861 10863 10865 10868 10871 10872 10873 10875 10877 10879 10880 10882 10885 10888 10891 10894
10713 10708 10703 10699 10693 10688 10683 10679 10677 10674 10668 10662 10657 10652 10648 10644 10640 10640 10640 10638 10637 10638 10640 10641 10643 10645 10648 10651 10655 10660 10666 10673 10681 10689 10696 10704 10711 10718 10726 10732 10738 10745 10751 10757 10764 10770 10776 10784 10790 10794 10799 10803 10806 10811 10815 10816 10819 10823 10829 10834 10837 10839 10842 10844 10846 10851 10854 10855 10856 10857 10859 10862 10865 10866 10867 10868 10870 10873 10875 10876 10878 10881 10884 10887 10890
10705 10699 10695 10690 10685 10679 10674 10669 10666 10663 10658 10652 10647 10642 10638 10635 10632 10632 10631 10630 10629 10630 10632 10634 10636 10638 10640 10644 10647 10652 10658 10664 10672 10680 10688 10695 10703 10710 10717 10723 10730 10737 10744 10750 10757 10765 10771 10776 10782 10788 10793 10796 10798 10803 10807 10809 10813 10818 10823 10828 10831 10834 10837 10839 10841 10846 10848 10850 10852 10852 10855 10858 10859 10859 10861 10863 10866 10868 10870 10872 10874 10877 10880 10882 10885
10697 10691 10687 10682 10677 10672 10666 10660 10656 10653 10649 10643 10637 10632 10628 10626 10624 10624 10623 10622 10622 10623 10625 10627 10629 10631 10633 10637 10641 10645 10651 10657 10663 10671 10680 10688 10695 10702 10708 10715 10722 10728 10735 10742 10750 10757 10763 10768 10774 10781 10785 10787 10790 10795 10799 10802 10807 10812 10816 10822 10825 10829 10832 10834 10836 10840 10843 10846 10847 10846 10848 10851 10851 10852 10856 10859 10861 10863 10865 10867 10870 10873 10876 10878 10881
10689 10684 10678 10674 10669 10663 10658 10652 10647 10644 10639 10633 10628 10623 10619 10618 10617 10617 10616 10615 10616 10617 10618 10621 10623 10625 10627 10630 10634 10639 10645 10650 10656 10663 10671 10679 10687 10693 10700 10706 10713 10719 10725 10734 10742 10749 10755 10761 10767 10773 10776 10778 10781 10785 10790 10796 10801 10805 10810 10817 10821 10823 10826 10828 10830 10835 10839 10841 10840 10839 10841 10842 10844 10848 10852 10855 10856 10858 10860 10863 10866 10869 10872 10874 10876
10682 10676 10671 10665 10660 10654 10648 10643 10639 10636 10631 10625 10620 10616 10612 10610 10610 10610 10609 10609 10610 10611 10613 10615 10618 10620 10622 10624 10629 10634 10639 10645 10650 10656 10663 10670 10678 10685 10692 10699 10705 10711 10719 10727 10734 10741 10746 10753 10759 10763 10766 10770 10773 10777 10783 10789 10795 10799 10805 10811 10815 10817 10821 10823 10826 10830 10833 10832 10831 10833 10834 10837 10840 10845 10848 10850 10852 10853 10855 10858 10862 10865 10867 10870 10872
10675 10670 10664 10658 10652 10645 10639 10634 10630 10628 10624 10618 10613 10609 10606 10604 10604 10605 10604 10604 10605 10607 10608 10610 10612 10615 10617 10620 10623 10628 10634 10639 10645 10650 10656 10663 10671 10678 10685 10692 10698 10706 10714 10720 10727 10733 10739 10745 10750 10755 10758 10763 10768 10772 10778 10785 10790 10794 10799 10804 10809 10812 10816 10819 10821 10824 10824 10823 10825 10828 10829 10832 10836 10840 10842 10845 10847 10849 10851 10854 10858 10860 10863 10865 10867
10668 10663 10656 10651 10645 10638 10631 10626 10623 10620 10617 10611 10606 10602 10599 10598 10599 10600 10599 10600 10601 10602 10604 10606 10608 10611 10613 10616 10619 10624 10629 10634 10639 10645 10651 10658 10664 10671 10678 10685 10692 10699 10706 10712 10719 10726 10732 10737 10743 10747 10751 10758 10763 10767 10774 10781 10784 10788 10793 10798 10802 10806 10810 10813 10815 10817 10817 10818 10821 10823 10825 10829 10832 10835 10837 10840 10842 10844 10847 10850 10853 10855 10858 10860 10862
10659 10654 10647 10642 10636 10629 10622 10618 10615 10613 10609 10605 10601 10597 10593 10593 10594 10595 10595 10596 10597 10598 10600 10602 10604 10607 10610 10612 10616 10620 10624 10629 10634 10640 10645 10651 10658 10665 10671 10679 10686 10693 10698 10705 10713 10720 10725 10730 10736 10740 10746 10753 10758 10763 10769 10774 10778 10782 10788 10791 10794 10799 10805 10807 10808 10810 10812 10814 10817 10820 10823 10825 10828 10830 10833 10836 10838 10839 10842 10846 10848 10850 10853 10856 10857
10649 10644 10639 10634 10629 10622 10615 10610 10607 10605 10603 10599 10595 10591 10588 10587 10589 10590 10592 10592 10593 10595 10597 10598 10601 10604 10607 10610 10613 10617 10621 10625 10630 10635 10640 10646 10653 10659 10666 10673 10680 10685 10691 10699 10708 10714 10718 10723 10728 10733 10739 10746 10751 10757 10762 10767 10772 10777 10782 10785 10788 10794 10799 10800 10801 10804 10807 10810 10813 10816 10819 10821 10823 10826 10829 10831 10833 10835 10838 10841 10843 10846 10849 10850 10852